Location: Ravensburg
(47.7866°N, 9.6124°E)
Time: 13:58:08
(UTC+02:00)

AO-91 - Pass Details

Date: 23 March 2026
Orbit: 425 x 637 km, 97.5° (Epoch: 14 April)

Event Time Altitude Azimuth Distance (km) Brightness Sun altitude
Rises 23:05:35 0° 355° (N) 2,931 ? -37.7°
Reaches altitude 10° 23:09:06 10° 326° (NW) 1,989 ? -38.0°
Enters shadow 23:10:07 12° 313° (NW) 1,862 ? -38.1°
